Regional Weather Roundup
Issued by NWS

Home | Current Version | Previous Version | Text Only | Print | Product List | Glossary On
Versions: 1 2 3 4 5 6 7 8 9 10 11 12 13 14 15 16 17 18 19 20 21 22 23 24 25 26 27 28 29 30 31 32 33 34 35 36 37 38 39 40 41 42 43 44 45 46 47 48 49 50
000
ASUS44 KOUN 311610
RWROK

WEATHER ROUNDUP FOR OKLAHOMA
NATIONAL WEATHER SERVICE NORMAN OK
1000 AM CST SAT JAN 31 2015

NOTE: "FAIR" INDICATES FEW OR NO CLOUDS BELOW 12,000 FEET WITH NO
      SIGNIFICANT WEATHER AND/OR OBSTRUCTIONS TO VISIBILITY.

OKZ001>007-009>012-014-015-017-311700-
NORTHWEST OKLAHOMA AND THE PANHANDLE

CITY           SKY/WX    TMP DP  RH WIND       PRES   REMARKS
GAGE           LGT RAIN  38  36  92 S8        30.06F FOG     WCI  32
ENID/WOODRING  LGT RAIN  41  39  93 S20       30.14S FOG
$$

OKZ016-021>023-033>039-044-045-311700-
SOUTHWEST OKLAHOMA

CITY           SKY/WX    TMP DP  RH WIND       PRES   REMARKS
LAWTON/REGL    RAIN      41  37  86 SE8       30.17R
LAWTON/FT SILL LGT RAIN  41  38  91 SE8       30.16R
FREDERICK      LGT RAIN  41  39  93 SE15      30.11F FOG
CLINTON        LGT RAIN  40  37  89 S22       30.12F FOG     WCI  30
HOBART         LGT RAIN  40  38  93 SE18      30.12F FOG     WCI  31
ALTUS AFB      LGT RAIN  41  41 100 SE14G21   30.12F
$$

OKZ018>020-024>031-311700-
CENTRAL OKLAHOMA

CITY           SKY/WX    TMP DP  RH WIND       PRES   REMARKS
OKLAHOMA CITY  LGT RAIN  42  35  76 S12       30.16S
OKC/WILEY POST LGT RAIN  41  36  82 S17G23    30.16S
OKC/TINKER AFB LGT RAIN  40  36  83 S10       30.16F WCI  34
STILLWATER     LGT RAIN  41  36  82 SE8       30.17S
GUTHRIE        LGT RAIN  41  37  86 S9        30.17R FOG
$$

OKZ008-013-054>072-311700-
NORTHEAST OKLAHOMA

CITY           SKY/WX    TMP DP  RH WIND       PRES   REMARKS
TULSA          CLOUDY    44  29  55 S9        30.21R
TULSA/JONES    CLOUDY    44  29  55 S6        30.21F
PONCA CITY     LGT RAIN  40  36  86 S10       30.17S FOG     WCI  33
BARTLESVILLE   CLOUDY    42  31  64 S6        30.23S
MUSKOGEE       CLOUDY    43  28  55 SE10      30.26F
$$

OKZ032-040>043-046>053-073>077-311700-
SOUTH CENTRAL/SOUTHEAST OKLAHOMA

CITY           SKY/WX    TMP DP  RH WIND       PRES   REMARKS
ARDMORE/DWNTWN CLOUDY    45  32  61 S12       30.19F
MCALESTER      CLOUDY    46  27  47 SE10G20   30.23F
$$




USA.gov is the U.S. government's official web portal to all federal, state and local government web resources and services.